Weather History for KDLN - March, 2013

Change the Weather History Date:

Friday, March 29, 2013

  Actual Average Record
Temperature  
Mean Temperature 47 °F 37 °F  
Max Temperature 58 °F 49 °F 79 °F (1986)
Min Temperature 36 °F 26 °F -3 °F (1987)
Degree Days  
Heating Degree Days 18    
Month to date heating degree days 879  
Since 1 July heating degree days 6294  
Cooling Degree Days 0    
Month to date cooling degree days 0  
Year to date cooling degree days 0  
Moisture  
Dew Point 28 °F    
Average Humidity 53    
Maximum Humidity 76    
Minimum Humidity 30    
Precipitation  
Precipitation T in 0.03 in 0.70 in (1967)
Month to date precipitation 0.14 0.51  
Year to date precipitation 0.40 1.03  
Snow  
Snow 0.00 in - - ()
Snow Depth 0.00 in    
Sea Level Pressure  
Sea Level Pressure 30.07 in    
Wind  
Wind Speed 10 mph (SW)    
Max Wind Speed 25 mph    
Max Gust Speed 35 mph    
Visibility 10 miles    
Events Rain    
T = Trace of Precipitation, MM = Missing Value Source: NWS Daily Summary

Daily Weather History Graph

Daily Weather History Graph

Search for Another Location

Airport or City:

Trip Planner

Search our weather history database for the weather conditions in past years. The results will help you decide how hot, cold, wet, or windy it might be!

Date:

Astronomy

Mar. 29, 2013 Rise Set
Actual Time 7:15 AM MDT 7:54 PM MDT
Civil Twilight 6:46 AM MDT 8:24 PM MDT
Nautical Twilight 6:10 AM MDT 8:59 PM MDT
Astronomical Twilight 5:34 AM MDT 9:36 PM MDT
Moon 11:09 PM MDT (3/29) 8:19 AM MDT (3/29)
Length of Visible Light 13h 38m
Length of Day
12h 39m
Waning Gibbous, 93% of the Moon is Illuminated
Mar 29
Waning Gibbous
Apr 2
Last Quarter
Apr 10
New
Apr 18
First Quarter
Apr 25
Full

Hourly Weather History & Observations

Time (MDT) Temp. Windchill Dew Point Humidity Pressure Visibility Wind Dir Wind Speed Gust Speed Precip Events Conditions
12:53 AM 39.9 °F 35.8 °F 25.0 °F 55% 30.02 in 10.0 mi WSW 5.8 mph - N/A   Overcast
1:53 AM 39.0 °F 34.0 °F 25.0 °F 57% 30.02 in 10.0 mi WSW 6.9 mph - N/A   Overcast
2:53 AM 39.0 °F - 26.1 °F 60% 30.03 in 10.0 mi Calm Calm - N/A   Overcast
3:53 AM 37.9 °F 34.4 °F 24.1 °F 57% 30.04 in 10.0 mi South 4.6 mph - N/A   Overcast
4:53 AM 37.0 °F 32.4 °F 24.1 °F 59% 30.04 in 10.0 mi SW 5.8 mph - N/A   Overcast
5:53 AM 39.9 °F 33.4 °F 26.1 °F 58% 30.06 in 10.0 mi South 10.4 mph - 0.00 in Rain Light Rain
6:53 AM 37.0 °F 29.8 °F 30.9 °F 79% 30.06 in 10.0 mi SSE 10.4 mph - 0.00 in   Scattered Clouds
7:53 AM 39.0 °F 34.0 °F 32.0 °F 76% 30.08 in 10.0 mi South 6.9 mph - N/A   Overcast
8:53 AM 41.0 °F 35.8 °F 33.1 °F 73% 30.10 in 10.0 mi SSW 8.1 mph - N/A   Partly Cloudy
9:53 AM 45.0 °F 40.1 °F 32.0 °F 60% 30.08 in 10.0 mi SSW 9.2 mph - N/A   Overcast
10:53 AM 51.1 °F - 30.9 °F 46% 30.07 in 10.0 mi SW 15.0 mph - N/A   Clear
11:53 AM 53.1 °F - 28.0 °F 38% 30.06 in 10.0 mi SSW 11.5 mph - N/A   Mostly Cloudy
12:53 PM 53.1 °F - 28.9 °F 40% 30.07 in 10.0 mi SW 18.4 mph 29.9 mph N/A   Mostly Cloudy
1:53 PM 55.0 °F - 28.9 °F 37% 30.07 in 10.0 mi WSW 18.4 mph 23.0 mph N/A   Mostly Cloudy
2:53 PM 55.0 °F - 28.9 °F 37% 30.06 in 10.0 mi North 12.7 mph 16.1 mph N/A   Overcast
3:53 PM 55.9 °F - 25.0 °F 30% 30.06 in 10.0 mi West 15.0 mph 21.9 mph N/A   Mostly Cloudy
4:53 PM 53.1 °F - 27.0 °F 37% 30.06 in 10.0 mi West 21.9 mph 28.8 mph N/A   Overcast
5:53 PM 55.0 °F - 28.0 °F 35% 30.05 in 10.0 mi West 21.9 mph - N/A   Mostly Cloudy
6:53 PM 52.0 °F - 28.0 °F 40% 30.09 in 10.0 mi WNW 8.1 mph - N/A   Mostly Cloudy
7:53 PM 48.9 °F - 27.0 °F 43% 30.11 in 10.0 mi West 9.2 mph - N/A   Overcast
8:53 PM 46.0 °F 43.1 °F 30.0 °F 54% 30.12 in 10.0 mi East 5.8 mph - N/A   Overcast
9:53 PM 43.0 °F 39.5 °F 30.9 °F 62% 30.14 in 10.0 mi ESE 5.8 mph - N/A   Overcast
10:53 PM 43.0 °F 41.3 °F 30.0 °F 60% 30.12 in 10.0 mi SSE 3.5 mph - N/A   Scattered Clouds
11:53 PM 43.0 °F 40.3 °F 28.9 °F 58% 30.12 in 10.0 mi South 4.6 mph - N/A   Mostly Cloudy